^^
Datos históricos de la estación: Murcia-Puente Tocinos
Diario Informe para Junio 21, 2019 Unidades:  Métrico    Inglés   Ambas
Diario Semanal Mensual Anual Configurable
  Máximo: Mínimo: Media:
Temperatura: 30.1 °C 20.7 °C 24.2 °C
Punto de rocio: 18.7 °C 16.2 °C 17.7 °C
Humedad: 85% 43% 68%
Velocidad viento: 23.7km/h 0.0km/h 8.5km/h
Racha viento: 38.1km/h - -
Viento- - ESE
Presión: 1014.2 hPa 1010.3 hPa -
Precipitación: 0.0 mm    
Historical Graphs
 
 
Tabla de datos para Junio 21, 2019
Hora Temperatura Punto de rocio Presión Viento Velocidad viento Racha viento Humedad Intensidad lluvia(por hora) Nubes
00:04 21.2 °C 18.2 °C 1011.1 hPa NNE 11.1 km/h 14.8 km/h 83% 0.0 mm CLR
00:09 21.1 °C 18.1 °C 1011.1 hPa NE 11.9 km/h 13.0 km/h 83% 0.0 mm CLR
00:14 21.1 °C 18.1 °C 1011.1 hPa NE 11.9 km/h 14.8 km/h 83% 0.0 mm CLR
00:19 21.1 °C 18.1 °C 1011.2 hPa NNE 9.5 km/h 13.0 km/h 83% 0.0 mm CLR
00:24 21.1 °C 18.1 °C 1011.2 hPa NE 9.5 km/h 13.0 km/h 83% 0.0 mm CLR
00:29 21.1 °C 18.3 °C 1011.2 hPa ENE 10.0 km/h 14.8 km/h 84% 0.0 mm CLR
00:34 21.0 °C 18.2 °C 1011.2 hPa NNE 10.0 km/h 18.5 km/h 84% 0.0 mm CLR
00:39 21.0 °C 18.2 °C 1011.2 hPa NE 11.1 km/h 11.1 km/h 84% 0.0 mm CLR
00:44 21.0 °C 18.2 °C 1011.2 hPa NNE 11.1 km/h 11.1 km/h 84% 0.0 mm CLR
00:49 21.0 °C 18.2 °C 1011.4 hPa NE 7.6 km/h 7.4 km/h 84% 0.0 mm CLR
00:54 21.1 °C 18.3 °C 1011.4 hPa East 7.6 km/h 9.3 km/h 84% 0.0 mm CLR
00:59 21.2 °C 18.4 °C 1011.4 hPa East 5.0 km/h 11.1 km/h 84% 0.0 mm CLR
01:04 21.2 °C 18.2 °C 1011.3 hPa ENE 5.0 km/h 13.0 km/h 83% 0.0 mm CLR
01:09 21.2 °C 18.2 °C 1011.3 hPa ENE 6.4 km/h 11.1 km/h 83% 0.0 mm CLR
01:14 21.2 °C 18.2 °C 1011.3 hPa NE 6.4 km/h 8.4 km/h 83% 0.0 mm CLR
01:19 21.3 °C 18.3 °C 1011.2 hPa NE 6.4 km/h 9.3 km/h 83% 0.0 mm CLR
01:24 21.3 °C 18.1 °C 1011.2 hPa ENE 6.4 km/h 9.3 km/h 82% 0.0 mm CLR
01:29 21.3 °C 18.1 °C 1011.2 hPa ESE 6.4 km/h 12.2 km/h 82% 0.0 mm CLR
01:34 21.4 °C 18.0 °C 1011.0 hPa East 6.4 km/h 13.0 km/h 81% 0.0 mm CLR
01:39 21.4 °C 17.8 °C 1011.0 hPa ENE 6.9 km/h 13.0 km/h 80% 0.0 mm CLR
01:44 21.4 °C 17.8 °C 1011.0 hPa ENE 6.9 km/h 9.5 km/h 80% 0.0 mm CLR
01:49 21.4 °C 17.8 °C 1010.9 hPa NE 6.9 km/h 9.3 km/h 80% 0.0 mm CLR
01:54 21.5 °C 17.9 °C 1010.9 hPa NE 6.9 km/h 11.1 km/h 80% 0.0 mm CLR
01:59 21.5 °C 18.1 °C 1010.9 hPa ENE 7.6 km/h 13.0 km/h 81% 0.0 mm CLR
02:04 21.6 °C 18.4 °C 1010.9 hPa NNE 7.6 km/h 9.5 km/h 82% 0.0 mm CLR
02:09 21.5 °C 18.3 °C 1010.9 hPa NNE 8.7 km/h 13.7 km/h 82% 0.0 mm CLR
02:14 21.4 °C 18.2 °C 1010.9 hPa North 8.7 km/h 13.0 km/h 82% 0.0 mm CLR
02:19 21.4 °C 18.2 °C 1011.0 hPa ENE 9.5 km/h 13.7 km/h 82% 0.0 mm CLR
02:24 21.4 °C 18.2 °C 1011.0 hPa NNE 9.5 km/h 14.0 km/h 82% 0.0 mm CLR
02:29 21.3 °C 18.1 °C 1011.0 hPa NE 8.7 km/h 13.0 km/h 82% 0.0 mm CLR
02:34 21.3 °C 18.1 °C 1011.0 hPa NNE 8.7 km/h 9.3 km/h 82% 0.0 mm CLR
02:39 21.3 °C 18.1 °C 1011.0 hPa NNE 8.4 km/h 13.0 km/h 82% 0.0 mm CLR
02:44 21.2 °C 18.0 °C 1011.0 hPa ENE 8.4 km/h 11.1 km/h 82% 0.0 mm CLR
02:49 21.2 °C 18.2 °C 1011.1 hPa NE 6.9 km/h 11.1 km/h 83% 0.0 mm CLR
02:54 21.2 °C 18.2 °C 1011.1 hPa NE 6.9 km/h 11.1 km/h 83% 0.0 mm CLR
02:59 21.2 °C 18.2 °C 1011.1 hPa NE 6.9 km/h 9.5 km/h 83% 0.0 mm CLR
03:04 21.2 °C 18.2 °C 1011.1 hPa North 6.9 km/h 9.3 km/h 83% 0.0 mm CLR
03:09 21.2 °C 18.2 °C 1011.1 hPa NNE 6.4 km/h 7.6 km/h 83% 0.0 mm CLR
03:14 21.2 °C 18.2 °C 1011.1 hPa NE 6.4 km/h 9.3 km/h 83% 0.0 mm CLR
03:19 21.2 °C 18.4 °C 1011.1 hPa NNE 5.0 km/h 7.4 km/h 84% 0.0 mm CLR
03:24 21.2 °C 18.4 °C 1011.1 hPa North 5.0 km/h 7.4 km/h 84% 0.0 mm CLR
03:29 21.2 °C 18.4 °C 1011.1 hPa NE 4.7 km/h 5.6 km/h 84% 0.0 mm CLR
03:34 21.2 °C 18.4 °C 1011.0 hPa NE 4.7 km/h 7.4 km/h 84% 0.0 mm CLR
03:39 21.1 °C 18.3 °C 1011.0 hPa NE 4.7 km/h 7.4 km/h 84% 0.0 mm CLR
03:44 21.1 °C 18.1 °C 1011.0 hPa NE 4.7 km/h 7.4 km/h 83% 0.0 mm CLR
03:49 21.1 °C 18.3 °C 1011.0 hPa NNE 4.7 km/h 5.6 km/h 84% 0.0 mm CLR
03:54 21.0 °C 18.2 °C 1011.0 hPa NE 4.7 km/h 7.4 km/h 84% 0.0 mm CLR
03:59 21.0 °C 18.2 °C 1011.0 hPa NE 3.9 km/h 7.4 km/h 84% 0.0 mm CLR
04:04 21.0 °C 18.0 °C 1010.9 hPa NNE 3.9 km/h 7.4 km/h 83% 0.0 mm CLR
04:09 21.0 °C 18.2 °C 1010.9 hPa NNE 3.2 km/h 3.7 km/h 84% 0.0 mm CLR
04:14 21.1 °C 18.1 °C 1010.9 hPa NNE 3.2 km/h 4.7 km/h 83% 0.0 mm CLR
04:19 21.1 °C 18.1 °C 1011.0 hPa North 2.3 km/h 5.6 km/h 83% 0.0 mm CLR
04:24 21.1 °C 18.1 °C 1011.0 hPa NNW 2.3 km/h 5.8 km/h 83% 0.0 mm CLR
04:29 21.1 °C 18.1 °C 1011.0 hPa NNW 3.2 km/h 5.6 km/h 83% 0.0 mm CLR
04:34 21.1 °C 18.1 °C 1011.0 hPa NNW 3.2 km/h 4.7 km/h 83% 0.0 mm CLR
04:39 21.0 °C 18.0 °C 1011.0 hPa NE 2.3 km/h 7.4 km/h 83% 0.0 mm CLR
04:44 20.9 °C 18.1 °C 1011.0 hPa NE 2.3 km/h 5.8 km/h 84% 0.0 mm CLR
04:49 20.9 °C 18.1 °C 1010.8 hPa ENE 3.9 km/h 7.4 km/h 84% 0.0 mm CLR
04:54 20.9 °C 18.1 °C 1010.8 hPa NE 3.9 km/h 7.4 km/h 84% 0.0 mm CLR
04:59 20.9 °C 18.1 °C 1010.8 hPa NNE 3.2 km/h 4.7 km/h 84% 0.0 mm CLR
05:04 20.9 °C 18.1 °C 1011.1 hPa NNE 3.2 km/h   84% 0.0 mm CLR
05:09 20.9 °C 18.1 °C 1011.1 hPa Calm   3.7 km/h 84% 0.0 mm CLR
05:14 20.9 °C 18.1 °C 1011.1 hPa Calm   4.7 km/h 84% 0.0 mm CLR
05:19 20.9 °C 18.1 °C 1010.9 hPa NNE 2.3 km/h 5.6 km/h 84% 0.0 mm CLR
05:24 20.9 °C 18.1 °C 1010.9 hPa NNE 2.3 km/h   84% 0.0 mm CLR
05:29 20.9 °C 18.1 °C 1010.9 hPa NNE 2.3 km/h   84% 0.0 mm CLR
05:34 20.9 °C 18.1 °C 1011.0 hPa NNE 2.3 km/h 3.7 km/h 84% 0.0 mm CLR
05:39 21.0 °C 18.2 °C 1011.0 hPa Calm     84% 0.0 mm CLR
05:44 21.0 °C 18.2 °C 1011.0 hPa Calm   7.4 km/h 84% 0.0 mm CLR
05:49 20.9 °C 18.1 °C 1010.7 hPa NE 2.9 km/h 3.7 km/h 84% 0.0 mm CLR
05:54 20.9 °C 18.1 °C 1010.7 hPa East 2.9 km/h 4.7 km/h 84% 0.0 mm CLR
05:59 20.8 °C 18.0 °C 1010.7 hPa ESE 2.9 km/h 7.4 km/h 84% 0.0 mm CLR
06:04 20.7 °C 17.9 °C 1011.1 hPa ENE 2.9 km/h 7.4 km/h 84% 0.0 mm CLR
06:09 20.7 °C 18.1 °C 1011.1 hPa NE 4.7 km/h 3.7 km/h 85% 0.0 mm CLR
06:14 20.7 °C 18.1 °C 1011.1 hPa NE 4.7 km/h   85% 0.0 mm CLR
06:19 20.7 °C 18.1 °C 1011.1 hPa Calm   5.0 km/h 85% 0.0 mm CLR
06:24 20.7 °C 17.9 °C 1011.1 hPa Calm   7.4 km/h 84% 0.0 mm CLR
06:29 20.7 °C 18.1 °C 1011.1 hPa ESE 4.7 km/h 5.6 km/h 85% 0.0 mm CLR
06:34 20.7 °C 18.1 °C 1011.1 hPa ESE 4.7 km/h 5.6 km/h 85% 0.0 mm CLR
06:39 20.7 °C 17.9 °C 1011.1 hPa East 3.9 km/h 3.7 km/h 84% 0.0 mm CLR
06:44 20.7 °C 17.9 °C 1011.1 hPa NE 3.9 km/h 7.4 km/h 84% 0.0 mm CLR
06:49 20.7 °C 17.9 °C 1011.2 hPa NE 2.3 km/h 5.8 km/h 84% 0.0 mm CLR
06:54 20.8 °C 18.0 °C 1011.2 hPa East 2.3 km/h 5.6 km/h 84% 0.0 mm CLR
06:59 20.8 °C 18.0 °C 1011.2 hPa NNE 3.2 km/h 5.6 km/h 84% 0.0 mm CLR
07:04 20.8 °C 18.0 °C 1011.3 hPa NE 3.2 km/h 7.4 km/h 84% 0.0 mm CLR
07:09 20.8 °C 18.2 °C 1011.3 hPa NNE 4.7 km/h 5.6 km/h 85% 0.0 mm CLR
07:14 20.8 °C 18.2 °C 1011.3 hPa NNE 4.7 km/h   85% 0.0 mm CLR
07:19 20.8 °C 18.2 °C 1011.4 hPa NNE 2.9 km/h 5.6 km/h 85% 0.0 mm CLR
07:24 20.8 °C 18.2 °C 1011.4 hPa NNE 2.9 km/h   85% 0.0 mm CLR
07:29 20.8 °C 18.2 °C 1011.4 hPa NNE 2.3 km/h 7.4 km/h 85% 0.0 mm CLR
07:34 20.8 °C 18.2 °C 1011.6 hPa North 2.3 km/h 5.6 km/h 85% 0.0 mm CLR
07:39 20.9 °C 18.3 °C 1011.6 hPa North 3.2 km/h 5.6 km/h 85% 0.0 mm CLR
07:44 20.9 °C 18.3 °C 1011.6 hPa North 3.2 km/h 3.9 km/h 85% 0.0 mm CLR
07:49 20.9 °C 18.3 °C 1011.9 hPa North 2.9 km/h   85% 0.0 mm CLR
07:54 20.9 °C 18.3 °C 1011.9 hPa NNE 2.9 km/h 5.6 km/h 85% 0.0 mm CLR
07:59 20.9 °C 18.3 °C 1011.9 hPa NNW 3.2 km/h 6.4 km/h 85% 0.0 mm CLR
08:04 21.0 °C 18.4 °C 1012.1 hPa NNW 3.2 km/h 3.7 km/h 85% 0.0 mm CLR
08:09 21.0 °C 18.4 °C 1012.1 hPa NNW 2.9 km/h 5.6 km/h 85% 0.0 mm CLR
08:14 21.1 °C 18.5 °C 1012.1 hPa NNW 2.9 km/h 3.7 km/h 85% 0.0 mm CLR
08:19 21.3 °C 18.7 °C 1012.2 hPa NNW 2.3 km/h   85% 0.0 mm CLR
08:24 21.4 °C 18.6 °C 1012.2 hPa NNW 2.3 km/h 4.7 km/h 84% 0.0 mm CLR
08:29 21.6 °C 18.6 °C 1012.2 hPa NNW 2.3 km/h 5.8 km/h 83% 0.0 mm CLR
08:34 21.7 °C 18.7 °C 1012.3 hPa NNW 2.3 km/h 3.2 km/h 83% 0.0 mm CLR
08:39 21.9 °C 18.7 °C 1012.3 hPa NNW 2.3 km/h   82% 0.0 mm CLR
08:44 22.0 °C 18.2 °C 1012.3 hPa NNE 2.3 km/h 5.6 km/h 79% 0.0 mm CLR
08:49 22.3 °C 18.3 °C 1012.4 hPa NE 3.2 km/h 7.4 km/h 78% 0.0 mm CLR
08:54 22.4 °C 18.2 °C 1012.4 hPa NE 3.2 km/h 5.6 km/h 77% 0.0 mm CLR
08:59 22.4 °C 17.9 °C 1012.4 hPa NNE 2.9 km/h   76% 0.0 mm CLR
09:04 22.5 °C 18.1 °C 1012.5 hPa North 2.9 km/h 5.6 km/h 76% 0.0 mm CLR
09:09 22.4 °C 17.9 °C 1012.5 hPa NE 2.3 km/h 5.6 km/h 76% 0.0 mm CLR
09:14 22.4 °C 17.9 °C 1012.5 hPa NE 2.3 km/h 7.4 km/h 76% 0.0 mm CLR
09:19 22.3 °C 17.9 °C 1012.6 hPa ENE 3.9 km/h 7.4 km/h 76% 0.0 mm CLR
09:24 22.3 °C 17.9 °C 1012.6 hPa ESE 3.9 km/h 5.6 km/h 76% 0.0 mm CLR
09:29 22.6 °C 18.2 °C 1012.6 hPa NE 2.3 km/h 7.4 km/h 76% 0.0 mm CLR
09:34 22.8 °C 18.1 °C 1012.7 hPa North 2.3 km/h 3.7 km/h 75% 0.0 mm CLR
09:39 23.0 °C 18.3 °C 1012.7 hPa NE 3.9 km/h 3.7 km/h 75% 0.0 mm CLR
09:44 23.3 °C 18.2 °C 1012.7 hPa NNE 3.9 km/h 9.3 km/h 73% 0.0 mm CLR
09:49 23.3 °C 17.9 °C 1012.7 hPa NNE 4.7 km/h 9.5 km/h 72% 0.0 mm CLR
09:54 23.1 °C 17.8 °C 1012.7 hPa NNE 4.7 km/h 11.1 km/h 72% 0.0 mm CLR
09:59 23.0 °C 17.7 °C 1012.7 hPa SSE 7.6 km/h 7.4 km/h 72% 0.0 mm CLR
10:04 23.3 °C 17.9 °C 1012.5 hPa NNE 7.6 km/h 11.1 km/h 72% 0.0 mm CLR
10:09 23.6 °C 18.1 °C 1012.5 hPa NE 4.7 km/h 7.6 km/h 71% 0.0 mm CLR
10:14 23.8 °C 17.8 °C 1012.5 hPa East 4.7 km/h 11.1 km/h 69% 0.0 mm CLR
10:19 23.9 °C 17.9 °C 1012.5 hPa NNW 5.0 km/h 7.4 km/h 69% 0.0 mm CLR
10:24 24.2 °C 17.9 °C 1012.5 hPa NE 5.0 km/h 7.4 km/h 68% 0.0 mm CLR
10:29 24.4 °C 18.1 °C 1012.5 hPa ENE 3.9 km/h 11.1 km/h 68% 0.0 mm CLR
10:34 24.3 °C 18.0 °C 1012.5 hPa NE 3.9 km/h 7.4 km/h 68% 0.0 mm CLR
10:39 23.9 °C 17.6 °C 1012.5 hPa NNE 6.4 km/h 8.4 km/h 68% 0.0 mm CLR
10:44 23.9 °C 17.6 °C 1012.5 hPa SSE 6.4 km/h 7.4 km/h 68% 0.0 mm CLR
10:49 24.1 °C 17.6 °C 1012.5 hPa SE 3.9 km/h 6.9 km/h 67% 0.0 mm CLR
10:54 24.2 °C 17.2 °C 1012.5 hPa SSE 3.9 km/h 9.3 km/h 65% 0.0 mm CLR
10:59 24.3 °C 17.6 °C 1012.5 hPa ESE 5.8 km/h 11.9 km/h 66% 0.0 mm CLR
11:04 24.6 °C 17.8 °C 1012.4 hPa ENE 5.8 km/h 9.3 km/h 66% 0.0 mm CLR
11:09 24.9 °C 17.1 °C 1012.4 hPa ESE 6.9 km/h 7.4 km/h 62% 0.0 mm CLR
11:14 25.2 °C 17.4 °C 1012.4 hPa NW 6.9 km/h 7.4 km/h 62% 0.0 mm CLR
11:19 25.3 °C 17.0 °C 1012.3 hPa NW 3.9 km/h 4.7 km/h 60% 0.0 mm CLR
11:24 25.4 °C 17.3 °C 1012.3 hPa NNW 3.9 km/h 7.4 km/h 61% 0.0 mm CLR
11:29 25.4 °C 17.3 °C 1012.3 hPa North 5.0 km/h 11.1 km/h 61% 0.0 mm CLR
11:34 25.6 °C 17.3 °C 1012.4 hPa NE 5.0 km/h 7.4 km/h 60% 0.0 mm CLR
11:39 25.8 °C 17.2 °C 1012.4 hPa NE 5.0 km/h 3.7 km/h 59% 0.0 mm CLR
11:44 26.1 °C 17.2 °C 1012.4 hPa ENE 5.0 km/h 7.4 km/h 58% 0.0 mm CLR
11:49 26.3 °C 17.1 °C 1012.2 hPa North 5.8 km/h 9.3 km/h 57% 0.0 mm CLR
11:54 26.2 °C 17.0 °C 1012.2 hPa NW 5.8 km/h 9.5 km/h 57% 0.0 mm CLR
11:59 26.1 °C 16.6 °C 1012.2 hPa NW 5.8 km/h 9.3 km/h 56% 0.0 mm CLR
12:04 26.0 °C 16.6 °C 1012.2 hPa SW 5.8 km/h 5.6 km/h 56% 0.0 mm CLR
12:09 26.1 °C 16.3 °C 1012.2 hPa WNW 5.8 km/h 9.3 km/h 55% 0.0 mm CLR
12:14 26.2 °C 16.4 °C 1012.2 hPa NNW 5.8 km/h 9.3 km/h 55% 0.0 mm CLR
12:19 26.5 °C 16.4 °C 1012.1 hPa West 5.8 km/h 9.3 km/h 54% 0.0 mm CLR
12:24 26.7 °C 16.3 °C 1012.1 hPa West 5.8 km/h 11.1 km/h 53% 0.0 mm CLR
12:29 26.7 °C 16.3 °C 1012.1 hPa WSW 5.8 km/h 9.3 km/h 53% 0.0 mm CLR
12:34 26.8 °C 16.4 °C 1011.9 hPa WNW 5.8 km/h 9.3 km/h 53% 0.0 mm CLR
12:39 26.9 °C 16.5 °C 1011.9 hPa West 7.6 km/h 14.8 km/h 53% 0.0 mm CLR
12:44 26.9 °C 16.5 °C 1011.9 hPa South 7.6 km/h 7.4 km/h 53% 0.0 mm CLR
12:49 27.3 °C 16.3 °C 1011.8 hPa SE 6.4 km/h 10.0 km/h 51% 0.0 mm CLR
12:54 27.6 °C 16.6 °C 1011.8 hPa ENE 6.4 km/h 5.6 km/h 51% 0.0 mm CLR
12:59 28.1 °C 16.7 °C 1011.8 hPa NW 4.7 km/h 7.4 km/h 50% 0.0 mm CLR
13:04 28.2 °C 16.4 °C 1011.7 hPa WNW 4.7 km/h 7.4 km/h 49% 0.0 mm CLR
13:09 28.4 °C 17.0 °C 1011.7 hPa NE 4.7 km/h 9.3 km/h 50% 0.0 mm CLR
13:14 28.3 °C 16.9 °C 1011.7 hPa North 4.7 km/h 13.0 km/h 50% 0.0 mm CLR
13:19 28.2 °C 16.8 °C 1011.6 hPa ESE 8.4 km/h 7.4 km/h 50% 0.0 mm CLR
13:24 28.3 °C 16.6 °C 1011.6 hPa NNE 8.4 km/h 11.1 km/h 49% 0.0 mm CLR
13:29 28.3 °C 16.2 °C 1011.6 hPa East 6.9 km/h 11.1 km/h 48% 0.0 mm CLR
13:34 28.2 °C 16.2 °C 1011.4 hPa East 6.9 km/h 3.7 km/h 48% 0.0 mm CLR
13:39 28.4 °C 16.3 °C 1011.4 hPa NNW 5.0 km/h 13.0 km/h 48% 0.0 mm CLR
13:44 28.6 °C 16.8 °C 1011.4 hPa North 5.0 km/h 7.4 km/h 49% 0.0 mm CLR
13:49 28.9 °C 16.4 °C 1011.2 hPa North 6.4 km/h 7.6 km/h 47% 0.0 mm CLR
13:54 29.2 °C 16.4 °C 1011.2 hPa NNE 6.4 km/h 13.0 km/h 46% 0.0 mm CLR
13:59 29.2 °C 16.7 °C 1011.2 hPa NE 6.4 km/h 9.3 km/h 47% 0.0 mm CLR
14:04 29.3 °C 16.5 °C 1011.2 hPa ESE 6.4 km/h 9.3 km/h 46% 0.0 mm CLR
14:09 29.2 °C 16.7 °C 1011.2 hPa ESE 6.4 km/h 7.6 km/h 47% 0.0 mm CLR
14:14 29.2 °C 17.1 °C 1011.2 hPa East 6.4 km/h 9.3 km/h 48% 0.0 mm CLR
14:19 29.4 °C 16.6 °C 1010.9 hPa East 6.4 km/h 16.7 km/h 46% 0.0 mm CLR
14:24 29.3 °C 16.5 °C 1010.9 hPa ESE 6.4 km/h 11.1 km/h 46% 0.0 mm CLR
14:29 29.3 °C 16.8 °C 1010.9 hPa East 8.4 km/h 11.1 km/h 47% 0.0 mm CLR
14:34 29.6 °C 16.8 °C 1010.8 hPa NE 8.4 km/h 11.1 km/h 46% 0.0 mm CLR
14:39 29.6 °C 16.4 °C 1010.8 hPa WNW 6.4 km/h 7.4 km/h 45% 0.0 mm CLR
14:44 29.7 °C 16.5 °C 1010.8 hPa NW 6.4 km/h 10.3 km/h 45% 0.0 mm CLR
14:49 29.7 °C 16.2 °C 1010.7 hPa NNE 5.8 km/h 16.7 km/h 44% 0.0 mm CLR
14:54 29.7 °C 16.2 °C 1010.7 hPa NE 5.8 km/h 20.4 km/h 44% 0.0 mm CLR
14:59 29.6 °C 16.4 °C 1010.7 hPa NW 10.3 km/h 9.3 km/h 45% 0.0 mm CLR
15:04 30.0 °C 16.4 °C 1010.6 hPa NNE 10.3 km/h 13.0 km/h 44% 0.0 mm CLR
15:09 30.1 °C 16.2 °C 1010.6 hPa NE 8.4 km/h 9.3 km/h 43% 0.0 mm CLR
15:14 30.1 °C 16.8 °C 1010.6 hPa ESE 8.4 km/h 13.0 km/h 45% 0.0 mm CLR
15:19 29.9 °C 17.7 °C 1010.5 hPa East 11.9 km/h 22.2 km/h 48% 0.0 mm CLR
15:24 29.7 °C 17.8 °C 1010.5 hPa ESE 11.9 km/h 27.8 km/h 49% 0.0 mm CLR
15:29 29.7 °C 17.8 °C 1010.5 hPa ESE 17.2 km/h 23.7 km/h 49% 0.0 mm CLR
15:34 29.4 °C 17.9 °C 1010.5 hPa ESE 17.2 km/h 29.6 km/h 50% 0.0 mm CLR
15:39 29.6 °C 18.1 °C 1010.5 hPa SE 18.3 km/h 23.7 km/h 50% 0.0 mm CLR
15:44 29.7 °C 17.8 °C 1010.5 hPa ESE 18.3 km/h 37.0 km/h 49% 0.0 mm CLR
15:49 29.4 °C 17.9 °C 1010.4 hPa East 20.1 km/h 18.5 km/h 50% 0.0 mm CLR
15:54 29.6 °C 17.8 °C 1010.4 hPa SE 20.1 km/h 25.9 km/h 49% 0.0 mm CLR
15:59 29.7 °C 17.8 °C 1010.4 hPa East 16.1 km/h 29.6 km/h 49% 0.0 mm CLR
16:04 29.6 °C 18.1 °C 1010.3 hPa SSE 16.1 km/h 31.5 km/h 50% 0.0 mm CLR
16:09 29.6 °C 18.1 °C 1010.3 hPa ESE 18.3 km/h 22.2 km/h 50% 0.0 mm CLR
16:14 29.4 °C 17.9 °C 1010.3 hPa ESE 18.3 km/h 22.2 km/h 50% 0.0 mm CLR
16:19 29.3 °C 17.8 °C 1010.3 hPa SE 17.2 km/h 29.6 km/h 50% 0.0 mm CLR
16:24 29.2 °C 17.7 °C 1010.3 hPa ESE 17.2 km/h 25.9 km/h 50% 0.0 mm CLR
16:29 29.1 °C 17.9 °C 1010.3 hPa SSE 20.9 km/h 27.8 km/h 51% 0.0 mm CLR
16:34 29.0 °C 17.8 °C 1010.5 hPa SE 20.9 km/h 29.8 km/h 51% 0.0 mm CLR
16:39 28.8 °C 17.9 °C 1010.5 hPa East 20.9 km/h 35.2 km/h 52% 0.0 mm CLR
16:44 28.4 °C 17.9 °C 1010.5 hPa SE 20.9 km/h 37.0 km/h 53% 0.0 mm CLR
16:49 28.3 °C 18.1 °C 1010.5 hPa SE 22.5 km/h 29.6 km/h 54% 0.0 mm CLR
16:54 28.0 °C 17.8 °C 1010.5 hPa SE 22.5 km/h 29.6 km/h 54% 0.0 mm CLR
16:59 28.0 °C 17.8 °C 1010.5 hPa ENE 22.5 km/h 35.2 km/h 54% 0.0 mm CLR
17:04 27.9 °C 17.7 °C 1010.6 hPa ESE 22.5 km/h 27.8 km/h 54% 0.0 mm CLR
17:09 28.1 °C 17.9 °C 1010.6 hPa SSE 20.1 km/h 27.8 km/h 54% 0.0 mm CLR
17:14 28.1 °C 17.9 °C 1010.6 hPa ESE 20.1 km/h 29.6 km/h 54% 0.0 mm CLR
17:19 27.8 °C 17.9 °C 1010.8 hPa ESE 20.1 km/h 37.0 km/h 55% 0.0 mm CLR
17:24 27.6 °C 18.1 °C 1010.8 hPa ESE 20.1 km/h 37.0 km/h 56% 0.0 mm CLR
17:29 27.8 °C 18.2 °C 1010.8 hPa East 22.0 km/h 16.7 km/h 56% 0.0 mm CLR
17:34 27.8 °C 17.9 °C 1010.8 hPa ESE 22.0 km/h 35.2 km/h 55% 0.0 mm CLR
17:39 27.6 °C 17.7 °C 1010.8 hPa ESE 20.1 km/h 35.2 km/h 55% 0.0 mm CLR
17:44 27.5 °C 17.9 °C 1010.8 hPa ESE 20.1 km/h 27.8 km/h 56% 0.0 mm CLR
17:49 27.4 °C 17.8 °C 1010.9 hPa ESE 22.0 km/h 38.1 km/h 56% 0.0 mm CLR
17:54 27.1 °C 17.8 °C 1010.9 hPa ESE 22.0 km/h 29.8 km/h 57% 0.0 mm CLR
17:59 27.1 °C 18.1 °C 1010.9 hPa SE 23.7 km/h 24.5 km/h 58% 0.0 mm CLR
18:04 27.3 °C 18.1 °C 1011.0 hPa SE 23.7 km/h 25.9 km/h 57% 0.0 mm CLR
18:09 27.1 °C 18.1 °C 1011.0 hPa ESE 19.0 km/h 37.0 km/h 58% 0.0 mm CLR
18:14 26.8 °C 18.1 °C 1011.0 hPa East 19.0 km/h 24.5 km/h 59% 0.0 mm CLR
18:19 27.0 °C 18.1 °C 1010.9 hPa ESE 20.1 km/h 30.6 km/h 58% 0.0 mm CLR
18:24 26.9 °C 18.2 °C 1010.9 hPa ESE 20.1 km/h 29.6 km/h 59% 0.0 mm CLR
18:29 26.8 °C 18.1 °C 1010.9 hPa ESE 19.0 km/h 33.3 km/h 59% 0.0 mm CLR
18:34 26.6 °C 18.2 °C 1011.0 hPa SE 19.0 km/h 35.9 km/h 60% 0.0 mm CLR
18:39 26.5 °C 18.1 °C 1011.0 hPa East 19.8 km/h 29.6 km/h 60% 0.0 mm CLR
18:44 26.3 °C 18.2 °C 1011.0 hPa ESE 19.8 km/h 29.6 km/h 61% 0.0 mm CLR
18:49 26.3 °C 18.2 °C 1011.1 hPa ESE 19.8 km/h 27.8 km/h 61% 0.0 mm CLR
18:54 26.1 °C 18.0 °C 1011.1 hPa ESE 19.8 km/h 29.6 km/h 61% 0.0 mm CLR
18:59 26.1 °C 18.0 °C 1011.1 hPa SE 20.1 km/h 27.8 km/h 61% 0.0 mm CLR
19:04 26.1 °C 18.0 °C 1011.2 hPa ESE 20.1 km/h 29.6 km/h 61% 0.0 mm CLR
19:09 26.1 °C 18.0 °C 1011.2 hPa ESE 17.2 km/h 24.1 km/h 61% 0.0 mm CLR
19:14 26.1 °C 18.0 °C 1011.2 hPa East 17.2 km/h 22.2 km/h 61% 0.0 mm CLR
19:19 26.0 °C 17.9 °C 1011.2 hPa ESE 16.4 km/h 29.1 km/h 61% 0.0 mm CLR
19:24 25.8 °C 17.9 °C 1011.2 hPa ESE 16.4 km/h 27.8 km/h 62% 0.0 mm CLR
19:29 25.8 °C 17.9 °C 1011.2 hPa East 17.2 km/h 21.7 km/h 62% 0.0 mm CLR
19:34 25.8 °C 17.9 °C 1011.3 hPa East 17.2 km/h 22.2 km/h 62% 0.0 mm CLR
19:39 25.6 °C 17.8 °C 1011.3 hPa ESE 15.6 km/h 25.9 km/h 62% 0.0 mm CLR
19:44 25.6 °C 17.8 °C 1011.3 hPa ESE 15.6 km/h 22.2 km/h 62% 0.0 mm CLR
19:49 25.6 °C 17.8 °C 1011.4 hPa East 14.8 km/h 18.5 km/h 62% 0.0 mm CLR
19:54 25.5 °C 17.9 °C 1011.4 hPa ESE 14.8 km/h 20.4 km/h 63% 0.0 mm CLR
19:59 25.5 °C 17.7 °C 1011.4 hPa ESE 14.8 km/h 22.2 km/h 62% 0.0 mm CLR
20:04 25.5 °C 17.7 °C 1011.4 hPa ESE 14.8 km/h 24.1 km/h 62% 0.0 mm CLR
20:09 25.3 °C 17.7 °C 1011.4 hPa SE 15.6 km/h 29.6 km/h 63% 0.0 mm CLR
20:14 25.3 °C 17.7 °C 1011.4 hPa SE 15.6 km/h 22.2 km/h 63% 0.0 mm CLR
20:19 25.2 °C 17.7 °C 1011.6 hPa SE 15.6 km/h 20.9 km/h 63% 0.0 mm CLR
20:24 25.2 °C 17.7 °C 1011.6 hPa ESE 15.6 km/h 16.7 km/h 63% 0.0 mm CLR
20:29 25.2 °C 17.7 °C 1011.6 hPa ESE 13.7 km/h 18.5 km/h 63% 0.0 mm CLR
20:34 25.1 °C 17.6 °C 1011.8 hPa ESE 13.7 km/h 16.7 km/h 63% 0.0 mm CLR
20:39 25.0 °C 17.4 °C 1011.8 hPa ESE 12.2 km/h 20.4 km/h 63% 0.0 mm CLR
20:44 25.0 °C 17.4 °C 1011.8 hPa SE 12.2 km/h 18.5 km/h 63% 0.0 mm CLR
20:49 24.9 °C 17.6 °C 1012.0 hPa ESE 13.0 km/h 18.5 km/h 64% 0.0 mm CLR
20:54 24.8 °C 17.5 °C 1012.0 hPa ESE 13.0 km/h 18.5 km/h 64% 0.0 mm CLR
20:59 24.8 °C 17.5 °C 1012.0 hPa SE 12.2 km/h 14.8 km/h 64% 0.0 mm CLR
21:04 24.8 °C 17.5 °C 1012.1 hPa NE 12.2 km/h 11.1 km/h 64% 0.0 mm CLR
21:09 24.7 °C 17.4 °C 1012.1 hPa East 8.7 km/h 14.8 km/h 64% 0.0 mm CLR
21:14 24.6 °C 17.3 °C 1012.1 hPa ENE 8.7 km/h 7.4 km/h 64% 0.0 mm CLR
21:19 24.6 °C 17.3 °C 1012.4 hPa SE 8.4 km/h 12.2 km/h 64% 0.0 mm CLR
21:24 24.5 °C 17.2 °C 1012.4 hPa East 8.4 km/h 13.0 km/h 64% 0.0 mm CLR
21:29 24.4 °C 17.2 °C 1012.4 hPa ESE 8.4 km/h 11.1 km/h 64% 0.0 mm CLR
21:34 24.3 °C 17.1 °C 1012.4 hPa East 8.4 km/h 11.1 km/h 64% 0.0 mm CLR
21:39 24.3 °C 17.1 °C 1012.4 hPa East 6.9 km/h 13.0 km/h 64% 0.0 mm CLR
21:44 24.2 °C 16.9 °C 1012.4 hPa East 6.9 km/h 7.6 km/h 64% 0.0 mm CLR
21:49 24.2 °C 16.9 °C 1012.6 hPa ESE 6.4 km/h 13.0 km/h 64% 0.0 mm CLR
21:54 24.2 °C 16.9 °C 1012.6 hPa SE 6.4 km/h 13.0 km/h 64% 0.0 mm CLR
21:59 24.1 °C 16.9 °C 1012.6 hPa NE 7.6 km/h 9.3 km/h 64% 0.0 mm CLR
22:04 24.1 °C 17.1 °C 1012.8 hPa East 7.6 km/h 9.3 km/h 65% 0.0 mm CLR
22:09 23.9 °C 16.9 °C 1012.8 hPa ENE 5.0 km/h 9.5 km/h 65% 0.0 mm CLR
22:14 23.8 °C 16.8 °C 1012.8 hPa East 5.0 km/h 9.3 km/h 65% 0.0 mm CLR
22:19 23.8 °C 17.1 °C 1013.0 hPa ENE 5.0 km/h 9.5 km/h 66% 0.0 mm CLR
22:24 23.7 °C 16.9 °C 1013.0 hPa NE 5.0 km/h 11.1 km/h 66% 0.0 mm CLR
22:29 23.5 °C 17.0 °C 1013.0 hPa NNE 7.6 km/h 11.1 km/h 67% 0.0 mm CLR
22:34 23.4 °C 16.9 °C 1013.2 hPa NE 7.6 km/h 11.9 km/h 67% 0.0 mm CLR
22:39 23.3 °C 17.1 °C 1013.2 hPa NNE 6.9 km/h 16.7 km/h 68% 0.0 mm CLR
22:44 23.2 °C 16.9 °C 1013.2 hPa NE 6.9 km/h 14.8 km/h 68% 0.0 mm CLR
22:49 23.1 °C 17.1 °C 1013.5 hPa NE 9.5 km/h 13.0 km/h 69% 0.0 mm CLR
22:54 23.1 °C 17.1 °C 1013.5 hPa East 9.5 km/h 11.1 km/h 69% 0.0 mm CLR
22:59 23.0 °C 17.0 °C 1013.5 hPa NNE 9.5 km/h 11.9 km/h 69% 0.0 mm CLR
23:04 22.9 °C 17.1 °C 1013.6 hPa East 9.5 km/h 9.3 km/h 70% 0.0 mm CLR
23:09 22.9 °C 17.1 °C 1013.6 hPa ENE 6.9 km/h 9.3 km/h 70% 0.0 mm CLR
23:14 22.8 °C 17.1 °C 1013.6 hPa ENE 6.9 km/h 10.0 km/h 70% 0.0 mm CLR
23:19 22.8 °C 17.1 °C 1014.0 hPa NE 6.4 km/h 9.3 km/h 70% 0.0 mm CLR
23:24 22.8 °C 17.1 °C 1014.0 hPa ESE 6.4 km/h 9.3 km/h 70% 0.0 mm CLR
23:29 22.8 °C 17.1 °C 1014.0 hPa ENE 4.7 km/h 5.6 km/h 70% 0.0 mm CLR
23:34 22.8 °C 17.1 °C 1014.2 hPa NE 4.7 km/h 9.5 km/h 70% 0.0 mm CLR
23:39 22.8 °C 17.1 °C 1014.2 hPa NE 5.0 km/h 11.1 km/h 70% 0.0 mm CLR
23:44 22.8 °C 17.1 °C 1014.2 hPa NE 5.0 km/h 11.1 km/h 70% 0.0 mm CLR
23:49 22.7 °C 16.9 °C 1014.2 hPa NE 6.9 km/h 13.0 km/h 70% 0.0 mm CLR
23:54 22.6 °C 17.1 °C 1014.2 hPa NNE 6.9 km/h 11.1 km/h 71% 0.0 mm CLR
23:59 22.6 °C 17.1 °C 1014.2 hPa NE 6.9 km/h 7.4 km/h 71% 0.0 mm CLR
Murcia-Puente Tocinos, España
Compliments of Weather Underground - 2.75 mb

La estación de MeteoMurcia.com, publica sus datos en los siguientes proyectos:

Weather Underground PWS IMURCIAP2 Meteoclimatic www.awekas.at

W3Counter
Web Analytics